Location: Unspecified
(0.0000°N, 0.0000°E)
Time: 18:07:25
(UTC+00:00)

USA 179 - Visible Passes

Search period start: 18 May 2026 00:00
Search period end: 28 May 2026 00:00
Orbit: 589 x 39760 km, 63.9° (Epoch: 18 February)

Date Brightness Start Highest point End Pass type
(mag) Time Alt. Az. Time Alt. Az. Time Alt. Az.
18 May ? 20:44:17 50° ESE 20:51:18 52° E 07:53:07 10° E visible
19 May ? 20:37:58 48° ESE 20:46:41 52° E 07:48:29 10° E visible
20 May ? 20:31:25 46° SE 20:42:06 52° E 07:43:51 10° E visible
21 May ? 20:24:26 42° SE 20:37:30 52° E 07:39:14 10° E visible
22 May ? 20:10:23 10° S 20:32:54 52° E 07:34:36 10° E visible
23 May ? 20:05:47 10° S 20:28:18 52° E 07:29:59 10° E visible
24 May ? 20:01:10 10° S 20:23:42 52° E 07:25:21 10° E visible
25 May ? 19:56:33 10° S 20:19:06 52° E 07:20:43 10° E visible
26 May ? 19:51:56 10° S 20:14:29 52° E 07:16:06 10° E visible
